SL-12 DEB, 41641

Orbit data source: Space-Track

SL-12 DEB, 41641 is space debris in HEO originally from a launch on Thu, 25 Dec 2008 UTC launched from the Tyuratam Missile And Space Complex (TTMTR). Debris objects in space refer to the collection of defunct objects orbiting the Earth. Examples of debris include non-operational satellites, rocket bodies, and fragments generated from explosions, collisions, or faulty payload assembly.

Loading next visibility...
Identifier
41641, 2008-067M
Orbit
HEO
Country
Flag of CISCIS
Related business
Manufacturer
RKKE
Mission
Spacecraft
Bus & Motor
Unknown
Mass
Unknown
Launch date (UTC)
2008-12-25 (17 years ago)
Launch vehicle
Unknown
Launch site
Tyuratam Missile And Space Complex (TTMTR)
Object type
Payload
Rocket body
Debris
Shape & HBR
Unknown shape, 0.6 m
Radar Cross Section
Medium (>0.1 m² and <1 m²)

Expand to show TLE details & history
Last TLE update: 2 days ago

TLE from 2 days ago
0 SL-12 DEB
1 41641U 08067M   25339.60737323  .00000176  00000-0  10411-2 0  9993
2 41641  65.0665 203.2834 5567248 294.3153  18.4653  4.29360026146620
Epoch: 2025-12-05T14:34Z
TLE epoch observation values (Epoch: 2025-12-05T14:34:37.047Z)
Latitude
-0.00014°
Longitude
-90.01163°
Altitude
2,612.211 km
Speed
7.985 km/s
True Right ascension
13h 33m 09s
True Declination
0° 00' 00"
Sunlit
Object was in daylight at epoch
Visualization orbit readout
Latitude
Unknown
Longitude
Unknown
Altitude
Unknown
Speed
Unknown
Apparent Right ascension
Unknown
Apparent Declination
Unknown
Sunlit
N/A
Visualization observer readout
Local Sidereal Time
07:40:10
Azimuth
Unknown
Elevation
Unknown
Doppler factor
Unknown
Orbital elements
Apogee altitude
18,512.485 km
Perigee altitude
709.433 km
Semi-major axis
15,989.096 km
Eccentricity
0.55672
Inclination
65.0665°
RAAN
203.2834°
Arg. of periapsis
294.3153°
True anomaly
65.93861°
Mean anomaly
18.4653°
Eccentric anomaly
38.1845°
Mean motion
1.07351 °/min
Orbital period
335.35 mins
BSTAR
0.0010411
Loading maneuver chart data...
Computing Atmospheric mass density...
Loading historical data...
Loading historical data...
Loading historical data...
Loading historical data...
Loading historical data...
Loading historical data...
Loading historical data...

Documentation

Showing up to 5 results
|